User: anonymous   Login
Location: Владивосток
(43.1151°N, 131.8856°E)
Time: 20:06:39
(UTC+10:00)
Language:

ESTCUBE 1 - Orbit

View from above orbital plane
View from above orbital plane
View from above satellite
View from above satellite

Ground track
Ground track

The orbit data is extracted from the following two-line orbital elements,

1 39161U 13021C   22180.78628473  .00000801  00000-0  13231-3 0  9997
2 39161  97.9073 257.7013 0010166  30.0469 330.1318 14.72974476491282
Epoch (UTC): 29 June 2022 18:52:15
Eccentricity: 0.0010166
inclination: 97.9073°
perigee height: 644 km
apogee height: 659 km
right ascension of ascending node: 257.7013°
argument of perigee: 30.0469°
revolutions per day: 14.72974476
mean anomaly at epoch: 330.1318°
orbit number at epoch: 49128

The dashed part of the orbit path shows where the satellite is in the earth's shadow,  

DLR